FW6013 Weather Reports


time (UTC)temp
F
wind
direction
speed
knots
gust
knots
rain 1hr
in
rain 24hr
in
rain mn
in
humidity
%
barometer
mb
20260507164004 54 269 4.3 12.2 0.05 0.18 0.18 88 999.7
20260507163505 55 284 3.5 13.9 0.06 0.17 0.17 87 1001.1
20260507163004 56 284 7.8 13.9 0.06 0.17 0.17 85 1002.4
20260507162504 57 286 10.4 13.9 0.06 0.17 0.17 83 1002.1
20260507162004 57 280 4.3 9.6 0.06 0.17 0.17 81 1001.5
20260507161504 58 253 3.5 9.6 0.06 0.17 0.17 82 1000.8
20260507160505 56 189 6.1 9.6 0.06 0.17 0.17 83 999.8
20260507160005 57 177 3.5 9.6 0.06 0.17 0.17 83 998.6
20260507155005 58 189 5.2 13.0 0.05 0.15 0.15 80 999.3
20260507153505 61 281 3.5 14.8 0.00 0.11 0.11 68 1001.9
20260507153005 61 290 7.0 13.9 0.00 0.11 0.11 64 1004.0
20260507152505 62 283 7.0 13.9 0.00 0.11 0.11 61 1003.8
20260507152004 63 257 7.0 18.2 0.00 0.11 0.11 59 1002.0
20260507151505 63 232 6.1 18.2 0.00 0.11 0.11 59 1000.5
20260507151005 63 237 7.8 13.9 0.00 0.11 0.11 60 1000.2
20260507150505 63 238 6.1 17.4 0.00 0.11 0.11 62 1000.0
20260507150006 63 224 4.3 17.4 0.00 0.11 0.11 63 999.6
20260507145504 62 210 7.0 13.0 0.01 0.11 0.11 64 998.9
20260507145004 62 205 3.5 19.1 0.01 0.11 0.11 67 998.6
20260507144504 61 215 4.3 19.1 0.01 0.11 0.11 66 998.5
20260507143504 61 228 12.2 26.9 0.01 0.11 0.11 67 998.9
20260507143005 62 225 9.6 19.1 0.01 0.11 0.11 68 998.7
20260507142504 61 236 7.8 19.1 0.01 0.11 0.11 70 998.5
20260507142005 61 228 4.3 18.2 0.01 0.11 0.11 74 998.4
20260507141505 60 240 3.5 20.0 0.01 0.11 0.11 78 998.8
20260507141006 60 245 7.8 20.0 0.01 0.11 0.11 77 999.2
20260507140505 60 244 6.1 19.1 0.01 0.11 0.11 74 999.6
20260507140004 62 244 4.3 13.0 0.00 0.09 0.09 69 1000.1
20260507134504 62 219 7.8 19.1 0.00 0.09 0.09 63 1000.3
20260507134004 62 222 5.2 19.1 0.00 0.09 0.09 64 998.6
20260507133005 63 198 6.1 13.9 0.00 0.09 0.09 67 997.3
20260507132504 63 196 8.7 13.0 0.00 0.09 0.09 67 997.3
20260507132004 63 206 4.3 13.0 0.00 0.09 0.09 67 997.1
20260507131504 64 209 7.0 13.9 0.00 0.09 0.09 67 996.9
20260507131005 64 190 7.8 13.9 0.00 0.09 0.09 68 997.1
20260507125504 64 187 7.0 13.0 0.00 0.09 0.09 67 997.5
20260507125004 64 188 8.7 19.1 0.00 0.09 0.09 65 997.2
20260507124504 65 191 4.3 19.1 0.00 0.09 0.09 67 997.1
20260507124005 65 184 9.6 19.1 0.00 0.09 0.09 67 996.6
20260507123004 65 185 7.0 13.0 0.00 0.09 0.09 73 996.6
20260507122004 65 176 5.2 13.9 0.00 0.09 0.09 76 996.7
20260507121504 65 183 5.2 14.8 0.00 0.09 0.09 78 996.3
20260507121004 65 189 6.1 18.2 0.00 0.09 0.09 79 996.5
20260507120504 65 190 7.8 18.2 0.00 0.09 0.09 81 996.4
20260507120005 65 185 7.8 14.8 0.00 0.09 0.09 82 996.2
20260507115504 66 187 7.0 15.6 0.00 0.09 0.09 84 996.1
20260507115004 66 192 5.2 15.6 0.00 0.09 0.09 84 996.0
20260507114504 66 187 7.8 14.8 0.00 0.09 0.09 84 995.7
20260507114005 66 192 7.0 13.9 0.00 0.09 0.09 84 995.9
20260507113505 66 185 7.0 13.9 0.00 0.09 0.09 84 995.9
20260507113004 66 177 7.0 12.2 0.00 0.09 0.09 85 995.6
20260507112504 67 182 3.5 9.6 0.00 0.09 0.09 85 995.6
20260507112004 67 176 5.2 17.4 0.00 0.09 0.09 85 995.7
20260507111506 66 193 7.8 19.1 0.00 0.09 0.09 85 995.3
20260507111004 67 190 7.8 19.1 0.00 0.09 0.09 85 995.1
20260507110504 67 176 7.0 15.6 0.00 0.09 0.09 86 995.2
20260507110005 67 181 7.0 17.4 0.00 0.09 0.09 86 995.1
20260507105504 67 189 7.0 17.4 0.00 0.09 0.09 86 995.0
20260507105004 67 186 7.8 14.8 0.00 0.09 0.09 86 995.1
20260507104004 67 189 7.0 15.6 0.00 0.09 0.09 87 994.6
20260507103504 67 192 7.0 15.6 0.00 0.09 0.09 87 994.6
20260507103004 67 186 6.1 13.0 0.00 0.09 0.09 86 994.3
20260507102006 67 184 5.2 13.0 0.00 0.09 0.09 87 993.7
20260507101504 67 167 6.1 11.3 0.00 0.09 0.09 87 993.8
20260507101005 67 177 5.2 13.9 0.00 0.09 0.09 87 994.0
20260507100504 67 184 6.1 17.4 0.01 0.09 0.09 87 993.7
20260507100005 67 186 7.8 17.4 0.01 0.09 0.09 87 993.5
20260507095504 67 201 5.2 12.2 0.01 0.09 0.09 87 993.3
20260507095005 68 204 7.0 13.0 0.01 0.09 0.09 86 993.0
20260507094505 68 199 3.5 14.8 0.01 0.09 0.09 87 993.1
20260507093504 68 192 5.2 14.8 0.01 0.09 0.09 88 992.5
20260507093004 68 185 9.6 17.4 0.01 0.09 0.09 88 992.4
20260507092505 68 198 3.5 17.4 0.01 0.09 0.09 88 992.2
20260507092004 68 214 7.0 13.9 0.01 0.09 0.09 88 992.3
20260507091504 68 216 5.2 13.0 0.01 0.09 0.09 88 992.1
20260507091004 68 206 7.0 13.0 0.01 0.09 0.09 88 991.9
20260507090505 68 190 4.3 13.0 0.00 0.08 0.08 89 992.3
20260507090006 68 194 6.1 13.0 0.00 0.08 0.08 89 992.2
20260507085505 68 204 3.5 9.6 0.00 0.08 0.08 89 992.9
20260507085005 67 212 3.5 9.6 0.00 0.08 0.08 89 993.0
20260507084005 67 189 3.5 9.6 0.04 0.08 0.08 90 993.3
20260507083505 67 202 3.5 9.6 0.04 0.08 0.08 90 992.5
20260507083004 67 207 5.2 11.3 0.04 0.08 0.08 90 992.3
20260507082504 67 189 1.7 12.2 0.05 0.08 0.08 89 992.7
20260507082005 67 186 3.5 12.2 0.06 0.08 0.08 89 992.8
20260507081505 67 183 4.3 11.3 0.08 0.08 0.08 90 992.8
20260507081005 67 183 4.3 9.6 0.08 0.08 0.08 90 992.8
20260507080504 67 191 3.5 7.0 0.08 0.08 0.08 91 992.9
20260507080005 67 188 2.6 6.1 0.08 0.08 0.08 91 993.2
20260507075504 67 167 3.5 6.1 0.08 0.08 0.08 90 993.1
20260507075005 68 155 3.5 6.1 0.08 0.08 0.08 90 993.2
20260507074505 68 148 4.3 6.1 0.05 0.05 0.05 90 993.1
20260507074005 68 149 1.7 6.1 0.05 0.05 0.05 90 993.6
20260507073504 68 163 1.7 7.0 0.05 0.05 0.05 89 993.3
20260507073004 69 165 1.7 9.6 0.05 0.05 0.05 87 993.2
20260507072504 69 158 3.5 9.6 0.04 0.04 0.04 85 993.6
20260507072005 71 152 5.2 7.0 0.02 0.02 0.02 81 993.7
20260507071504 72 166 2.6 9.6 0.00 0.00 0.00 79 993.5
20260507071005 72 176 4.3 9.6 0.00 0.00 0.00 79 993.7
20260507070505 72 169 3.5 11.3 0.00 0.00 0.00 81 993.4
20260507070009 73 157 4.3 11.3 0.00 0.00 0.00 82 993.1
20260507065504 73 156 3.5 11.3 0.00 0.00 0.00 83 993.2
20260507065004 75 173 3.5 7.0 0.00 0.00 0.00 87 993.3
20260507064505 75 225 0.9 6.1 0.00 0.00 0.00 87 993.1
20260507064005 75 235 3.5 7.0 0.00 0.00 0.00 87 993.3
20260507063504 75 234 3.5 7.0 0.00 0.00 0.00 88 993.2
20260507063004 75 350 0.9 3.5 0.00 0.00 0.00 87 992.9
20260507062505 75 346 1.7 3.5 0.00 0.00 0.00 87 992.4
20260507062005 75 350 1.7 5.2 0.00 0.00 0.00 87 992.4
20260507061504 75 5 1.7 5.2 0.00 0.00 0.00 87 992.5
20260507061004 75 2 1.7 5.2 0.00 0.00 0.00 87 992.6
20260507055504 75 316 1.7 5.2 0.00 0.00 0.00 86 992.4
20260507055005 75 323 1.7 3.5 0.00 0.00 0.00 86 992.8
20260507054505 75 324 1.7 3.5 0.00 0.00 0.00 86 992.8
20260507053504 75 312 3.5 3.5 0.00 0.00 0.00 86 993.2
20260507053005 75 318 1.7 5.2 0.00 0.00 0.00 86 993.2
20260507052504 75 327 2.6 5.2 0.00 0.00 0.00 86 993.3
20260507052004 75 330 2.6 6.1 0.00 0.00 0.00 86 993.5
20260507051505 75 339 2.6 6.1 0.00 0.00 0.00 85 993.2
20260507050505 76 352 2.6 6.1 0.00 0.00 0.00 85 993.1
20260507050005 76 359 2.6 6.1 0.00 0.00 0.00 84 993.2
20260507045505 76 358 1.7 6.1 0.00 0.00 0.00 84 993.0
20260507045005 76 354 1.7 7.0 0.00 0.00 0.00 84 993.0
20260507044505 76 347 3.5 7.0 0.00 0.00 0.00 84 992.9
20260507044004 76 343 1.7 7.0 0.00 0.00 0.00 83 993.1
20260507043504 76 348 3.5 7.0 0.00 0.00 0.00 84 993.2
20260507042504 76 346 3.5 7.0 0.00 0.00 0.00 83 993.0
20260507042004 76 344 3.5 7.0 0.00 0.00 0.00 83 993.1
20260507041504 76 339 3.5 7.0 0.00 0.00 0.00 83 993.1
20260507041005 77 344 3.5 7.0 0.00 0.00 0.00 82 993.1
20260507040005 77 348 1.7 6.1 0.00 0.00 0.00 81 993.2
20260507035004 78 353 2.6 7.0 0.00 0.00 0.00 80 993.3
20260507034505 78 355 3.5 9.6 0.00 0.00 0.00 80 993.5
20260507033504 77 353 3.5 7.8 0.00 0.00 0.00 81 993.7
20260507033005 77 2 4.3 7.0 0.00 0.00 0.00 82 993.3
20260507032505 77 351 3.5 6.1 0.00 0.00 0.00 82 993.6
20260507032004 77 351 2.6 6.1 0.00 0.00 0.00 81 993.6
20260507031505 77 347 1.7 3.5 0.00 0.00 0.00 81 993.7
20260507031005 77 343 2.6 5.2 0.00 0.00 0.00 81 993.8
20260507030504 77 353 2.6 5.2 0.00 0.00 0.00 81 993.8
20260507030005 77 8 3.5 5.2 0.00 0.00 0.00 81 993.9
20260507025504 78 9 1.7 3.5 0.00 0.00 0.00 80 993.8
20260507025005 78 356 1.7 3.5 0.00 0.00 0.00 80 993.9
20260507024005 78 351 0.9 3.5 0.00 0.00 0.00 80 994.1
20260507023505 78 346 0.9 3.5 0.00 0.00 0.00 80 994.0
20260507023004 78 352 3.5 3.5 0.00 0.00 0.00 79 993.9
20260507022504 78 353 2.6 3.5 0.00 0.00 0.00 79 994.2
20260507022005 78 344 1.7 3.5 0.00 0.00 0.00 79 994.0
20260507020005 78 343 2.6 3.5 0.00 0.00 0.00 79 994.1
20260507015505 78 348 1.7 3.5 0.00 0.00 0.00 79 994.2
20260507015004 78 355 1.7 3.5 0.00 0.00 0.00 80 993.9
20260507014504 78 356 1.7 3.5 0.00 0.00 0.00 80 993.9
20260507014005 78 354 1.7 5.2 0.00 0.00 0.00 80 993.9
20260507013505 77 354 1.7 5.2 0.00 0.00 0.00 80 993.6
20260507013004 78 11 1.7 5.2 0.00 0.00 0.00 80 993.6
20260507012504 78 17 1.7 5.2 0.00 0.00 0.00 79 993.3
20260507012005 78 8 1.7 6.1 0.00 0.00 0.00 79 993.4
20260507011504 78 354 1.7 6.1 0.00 0.00 0.00 79 993.2
20260507011004 78 352 2.6 6.1 0.00 0.00 0.00 79 993.4
20260507010504 78 2 2.6 5.2 0.00 0.00 0.00 79 993.3
20260507005005 78 6 1.7 7.0 0.00 0.00 0.00 78 993.5
20260507004504 78 343 4.3 7.0 0.00 0.00 0.00 78 993.4
20260507004004 78 339 1.7 7.0 0.00 0.00 0.00 77 993.4
20260507003505 78 356 2.6 7.8 0.00 0.00 0.00 77 993.4
20260507002005 79 1 3.5 9.6 0.00 0.00 0.00 76 993.5
20260507001504 79 352 2.6 9.6 0.00 0.00 0.00 76 993.2
20260507001004 79 12 2.6 9.6 0.00 0.00 0.00 76 993.6
20260507000505 80 14 1.7 9.6 0.00 0.00 0.00 75 993.5
20260507000005 80 3 1.7 5.2 0.00 0.00 0.00 75 993.6
20260506235504 80 359 2.6 5.2 0.00 0.00 0.00 74 993.8
20260506235004 80 346 2.6 7.8 0.00 0.00 0.00 74 993.6
20260506234504 81 337 1.7 7.8 0.00 0.00 0.00 73 993.8
20260506233504 81 349 2.6 13.0 0.00 0.00 0.00 72 993.6
20260506233005 81 352 3.5 13.0 0.00 0.00 0.00 71 993.7
20260506232505 82 344 4.3 12.2 0.00 0.00 0.00 71 993.6
20260506232004 82 345 6.1 12.2 0.00 0.00 0.00 71 993.4
20260506231504 82 349 3.5 13.0 0.00 0.00 0.00 70 993.3
20260506231005 82 335 5.2 14.8 0.00 0.00 0.00 69 993.2
20260506230505 82 338 7.0 14.8 0.00 0.00 0.00 69 993.2
20260506230004 82 351 7.0 13.9 0.00 0.00 0.00 69 993.3
20260506225504 82 359 6.1 13.9 0.00 0.00 0.00 70 993.3
20260506225004 82 354 6.1 12.2 0.00 0.00 0.00 70 993.2
20260506224505 82 352 3.5 12.2 0.00 0.00 0.00 71 993.4
20260506224004 82 359 7.0 12.2 0.00 0.00 0.00 71 993.5
20260506222504 82 351 3.5 9.6 0.00 0.00 0.00 71 993.6
20260506222004 82 358 3.5 9.6 0.00 0.00 0.00 71 993.9
20260506221504 83 353 3.5 9.6 0.00 0.00 0.00 70 993.9
20260506221005 83 349 3.5 9.6 0.00 0.00 0.00 70 993.8
20260506220504 83 5 2.6 7.8 0.00 0.00 0.00 70 993.7
20260506220004 83 14 2.6 6.1 0.00 0.00 0.00 70 993.9
20260506215504 84 5 1.7 6.1 0.00 0.00 0.00 69 993.8
20260506215006 84 3 2.6 5.2 0.00 0.00 0.00 69 993.9
20260506213504 85 352 1.7 7.8 0.00 0.00 0.00 68 994.0
20260506213004 85 342 3.5 7.8 0.00 0.00 0.00 67 994.1
20260506212504 85 345 3.5 7.8 0.00 0.00 0.00 67 994.1
20260506212005 85 351 3.5 7.8 0.00 0.00 0.00 66 993.9
20260506211004 85 348 3.5 13.9 0.00 0.00 0.00 65 993.7
20260506210504 86 349 7.0 13.9 0.00 0.00 0.00 65 993.5
20260506205505 86 341 3.5 13.0 0.00 0.00 0.00 64 993.9
20260506205004 86 350 5.2 13.0 0.00 0.00 0.00 63 993.7
20260506204504 87 355 3.5 13.0 0.00 0.00 0.00 63 993.8
20260506204005 87 352 2.6 12.2 0.00 0.00 0.00 63 994.0
20260506203504 87 353 5.2 13.0 0.00 0.00 0.00 63 994.0
20260506203004 87 356 7.0 13.0 0.00 0.00 0.00 62 994.1
20260506202505 87 352 7.0 12.2 0.00 0.00 0.00 62 994.0
20260506202004 87 340 7.0 13.0 0.00 0.00 0.00 62 994.0
20260506201504 87 343 7.8 14.8 0.00 0.00 0.00 62 994.3
20260506201005 88 351 8.7 14.8 0.00 0.00 0.00 62 994.1
20260506200505 88 342 7.0 12.2 0.00 0.00 0.00 62 994.2
20260506200005 88 344 5.2 13.9 0.00 0.00 0.00 62 994.3
20260506195504 88 346 4.3 13.9 0.00 0.00 0.00 62 994.3
20260506195004 88 353 3.5 13.9 0.00 0.00 0.00 62 994.2
20260506194004 88 350 4.3 13.0 0.00 0.00 0.00 61 994.4
20260506193504 88 348 4.3 13.9 0.00 0.00 0.00 61 994.4
20260506193005 88 338 5.2 13.9 0.00 0.00 0.00 61 994.3
20260506192504 89 342 7.0 13.0 0.00 0.00 0.00 61 994.4
20260506192004 88 340 6.1 12.2 0.00 0.00 0.00 61 994.4
20260506191505 88 347 7.0 12.2 0.00 0.00 0.00 61 994.2
20260506191004 89 345 3.5 13.9 0.00 0.00 0.00 61 994.4
20260506190006 88 348 9.6 15.6 0.00 0.00 0.00 62 994.6
20260506185504 87 359 5.2 14.8 0.00 0.00 0.00 62 994.6
20260506185004 88 352 8.7 14.8 0.00 0.00 0.00 61 994.7
20260506184504 88 343 9.6 13.9 0.00 0.00 0.00 61 994.7
20260506184005 89 345 3.5 13.9 0.00 0.00 0.00 60 994.7
20260506183504 88 346 8.7 14.8 0.00 0.00 0.00 61 994.8
20260506182505 87 345 9.6 14.8 0.00 0.00 0.00 62 995.0
20260506182004 87 354 8.7 14.8 0.00 0.00 0.00 61 994.9
20260506181504 87 358 7.0 14.8 0.00 0.00 0.00 62 995.1
20260506181005 87 342 3.5 19.1 0.00 0.00 0.00 62 995.2
20260506180505 87 347 8.7 19.1 0.00 0.00 0.00 61 995.2
20260506175505 87 347 6.1 13.9 0.00 0.00 0.00 62 995.1
20260506175005 87 352 6.1 14.8 0.00 0.00 0.00 63 995.3
20260506174504 87 355 3.5 15.6 0.00 0.00 0.00 62 995.3
20260506173505 87 338 7.0 18.2 0.00 0.00 0.00 61 995.7
20260506173004 88 332 6.1 18.2 0.00 0.00 0.00 61 995.6
20260506172504 88 353 6.1 14.8 0.00 0.00 0.00 59 995.8
20260506172004 88 7 9.6 14.8 0.00 0.00 0.00 60 996.0
20260506171505 88 1 5.2 13.9 0.00 0.00 0.00 61 995.9
20260506170504 88 6 7.8 17.4 0.00 0.00 0.00 60 996.3
20260506170005 88 14 7.0 17.4 0.00 0.00 0.00 60 996.2
20260506165505 88 353 3.5 11.3 0.00 0.00 0.00 62 996.2
20260506165005 88 345 5.2 13.9 0.00 0.00 0.00 62 996.4